Location: Unspecified
(0.0000°N, 0.0000°E)
Time: 17:48:03
(UTC+00:00)

STARLINK 1042 - Pass Details

Date: 17 January 2020
Orbit: 548 x 551 km, 53.0° (Epoch: 17 January)

Event Time Altitude Azimuth Distance (km) Brightness Sun altitude
Rises 18:49:45 0° 315° (NW) 2,701 7.5 -9.3°
Reaches altitude 10° 18:52:03 10° 309° (NW) 1,811 6.7 -9.8°
Maximum altitude 18:55:58 44° 236° (SW) 763 4.9 -10.7°
Drops below altitude 10° 18:59:56 10° 163° (SSE) 1,819 6.3 -11.7°
Sets 19:02:14 0° 157° (SSE) 2,715 7.1 -12.2°
